STARLINK-34945 (65185 NORAD) Tracking and Keplerian Element Data

This shows tracking and keplerian element data for the satellite.

Feedback or suggestion? Click here.




ElementValue
Catalog65185
NameSTARLINK-34945
Epoch Orbit2068
Epoch Day354.22898085
Epoch Year2025
RAAN224.333
Inclination97.6026
Eccentricity0.0003265
Argument of Perigee81.3452
Mean Anonmoly278.8145
Mean Motion15.05634356
Decay Rate2.629E-05
L11 65185U 25175M 25354.22898085 .00002629 00000+0 18639-3 0 9994
L22 65185 97.6026 224.3330 0003265 81.3452 278.8145 15.05634356 20682



Live tracking and technical data element details for STARLINK-34945 (NORAD 65185). STARLINK-34945 can be tracked NOW for your location showing map with azimuth and elevation plus other details from your city location.







IsCatalogInMostPopularTable: catalog: 65185, numindb: 8
Update: records affected: 1



GetName: 65185 STARLINK-34945

Hit Count: updated at: Tue, 21 Apr 2026 20:44:08 GMT